Location: Unspecified
(0.0000°N, 0.0000°E)
Time: 22:14:00
(UTC+00:00)

BlueWalker 3 - Pass Details

Date: 13 February 2024
Orbit: 486 x 500 km, 53.2° (Epoch: 20 February)

Event Time Altitude Azimuth Distance (km) Brightness Sun altitude
Exits shadow 04:34:08 - 20° (NNE) 1,932 5.0 -24.3°
Reaches altitude 10° 04:35:40 10° 40° (NE) 1,674 4.9 -23.9°
Maximum altitude 04:36:40 11° 56° (NE) 1,624 5.0 -23.7°
Drops below altitude 10° 04:37:40 10° 71° (ENE) 1,679 5.3 -23.4°
Sets 04:41:26 0° 109° (ESE) 2,569 7.0 -22.5°
